FLOCK 3M-4 (42997 NORAD) Tracking and Keplerian Element Data

This shows tracking and keplerian element data for the satellite.

Feedback or suggestion? Click here.




ElementValue
Catalog42997
NameFLOCK 3M-4
Epoch Orbit28925
Epoch Day14.069397
Epoch Year2023
RAAN136.6494
Inclination97.4699
Eccentricity0.000949
Argument of Perigee350.7333
Mean Anonmoly9.3746
Mean Motion15.57941564
Decay Rate0.00328594
L11 42997U 17068L 23014.06939700 .00328594 00000+0 42228-2 0 9997
L22 42997 97.4699 136.6494 0009490 350.7333 9.3746 15.57941564289258



Live tracking and technical data element details for FLOCK 3M-4 (NORAD 42997). FLOCK 3M-4 can be tracked NOW for your location showing map with azimuth and elevation plus other details from your city location.







IsCatalogInMostPopularTable: catalog: 42997, numindb: 610
Update: records affected: 1



GetName: 42997 FLOCK 3M-4

Hit Count: updated at: Thu, 15 May 2025 18:58:16 GMT